Regional Weather Roundup
Issued by NWS Cleveland, OH

Home | Current Version | Previous Version | Text Only | Print | Product List | Glossary Off
Versions: 1 2 3 4 5 6 7 8 9 10 11 12 13 14 15 16 17 18 19 20 21 22 23 24 25 26 27 28 29 30 31 32 33 34 35 36 37 38 39 40 41 42 43 44 45 46 47 48 49 50

000
ASUS41 KCLE 301102
RWRCLE
OHIO REGIONAL WEATHER ROUNDUP
NATIONAL WEATHER SERVICE CLEVELAND, OH
700 AM EDT TUE SEP 30 2014

NOTE: "FAIR" INDICATES FEW OR NO CLOUDS BELOW 12,000 FEET WITH NO
SIGNIFICANT WEATHER AND/OR OBSTRUCTIONS TO VISIBILITY.

OHZ001>008-015>018-024>027-034-035-043-044-301200-
   NORTHWEST OHIO

CITY           SKY/WX    TMP DP  RH WIND       PRES   REMARKS
DEFIANCE       CLOUDY    57  53  86 NW8       29.94R
FINDLAY        LGT RAIN  61  58  90 N8        29.91F FOG
TOLEDO EXPRESS CLOUDY    53  52  96 N9        29.94R
TOLEDO EXEC    CLOUDY    56  52  86 NW10      29.93R
LIMA           LGT RAIN  61  58  90 N3        29.91F FOG
$$

OHZ009>014-019>023-028>033-038-089-301200-
   NORTHEAST OHIO

CITY           SKY/WX    TMP DP  RH WIND       PRES   REMARKS
CLE-HOPKINS    CLOUDY    58  54  86 S3        29.89F
CLE-LAKEFRONT  CLOUDY    63  55  75 SW7       29.87R
CUY CO. ARPT   CLOUDY    61  57  88 W9        29.89
LORAIN-ELYRIA  HVY RAIN  62  56  80 CALM      29.89S
ASHTABULA      CLOUDY    55  53  93 S3        29.89S FOG
AKRON-CANTON   CLEAR     54  51  90 CALM      29.89S FOG
WOOSTER        PTCLDY    48  45  89 CALM      29.90S FOG
MANSFIELD      MOCLDY    59  52  77 W7        29.91R
YOUNGSTOWN     MOCLDY    51  50  96 SE3       29.89S
$$

OHZ042-051>053-060>062-070>072-077>081-301200-
  SOUTHWEST OHIO

CITY           SKY/WX    TMP DP  RH WIND       PRES   REMARKS
CINC-COVINGTON CLEAR     54  51  90 W3        29.93R
CINC-LUNKEN    CLEAR     52  51  97 CALM      29.94R
HAMILTON       CLEAR     50  49  96 CALM      29.94R
DAYTON         PTCLDY    57  50  77 W3        29.94R
WRIGHT-PAT AFB CLEAR     54  52  91 NE2       29.93R
DAYTON GENERAL CLEAR     56  51  84 S3        29.92R
WILMINGTON     PTCLDY    53  48  83 SW3       29.92S
$$

OHZ036-037-039>041-045>050-054>059-063>069-073>076-082>088-301200-
  CENTRAL AND SOUTHEAST OHIO

CITY           SKY/WX    TMP DP  RH WIND       PRES   REMARKS
COLUMBUS       PTCLDY    54  49  83 CALM      29.90S
OSU AIRPORT    PTCLDY    53  49  86 CALM      29.90S
BOLTON FIELD   PTCLDY    49  49  98 CALM      29.91S
RICKENBACK AFB MOCLDY    50  47  89 CALM      29.91S
NEWARK         CLEAR     46  44  93 CALM      29.90S FOG
MARION         MOCLDY    53  49  86 CALM      29.91R
LANCASTER      CLEAR     46  44  93 CALM      29.91S
ZANESVILLE     CLEAR     48  45  89 CALM      29.91R
NEW PHILLY     FOG       52  52 100 CALM      29.91R VSB 1/4
$$


USA.gov is the U.S. government's official web portal to all federal, state and local government web resources and services.